Location: Maccacari
(45.1333°N, 11.1333°E)
Time: 13:01:26
(UTC+00:00)

S-56A Canister/Altair - Pass Details

Date: 26 January 2021
Orbit: 631 x 2501 km, 38.9° (Epoch: 01 March)

Event Time Altitude Azimuth Distance (km) Brightness Sun altitude
Rises 23:23:17 0° 208° (SSW) 3,570 - -63.3°
Reaches altitude 10° 23:27:25 10° 183° (S) 2,334 - -63.3°
Maximum altitude 23:29:55 13° 154° (SSE) 1,964 - -63.3°
Drops below altitude 10° 23:32:13 10° 124° (SE) 2,094 - -63.3°
Sets 23:35:31 0° 96° (E) 2,924 - -63.3°
